Boone Lake Weather Center

Moon Phase Calendar



Boone Lake Water Level
Online Cameras

 


      

Current Conditions in Oak Grove
9/22/2021 11:18:37 PM

57°F
Feels Like 56
Clouds
Humidity
72%
Pressure
29.97"
Wind
8 mph (S)
Dew Point
48°F
UV Index
0/10 (Low)
Visibility
6 mi

Hourly Forecast

Date & Time Wed, Sep 22
11:00 PM
Thu, Sep 23
12:00 AM
Thu, Sep 23
1:00 AM
Thu, Sep 23
2:00 AM
Thu, Sep 23
3:00 AM
Thu, Sep 23
4:00 AM
Thu, Sep 23
5:00 AM
Thu, Sep 23
6:00 AM
Thu, Sep 23
7:00 AM
Thu, Sep 23
8:00 AM
Thu, Sep 23
9:00 AM
Thu, Sep 23
10:00 AM
Thu, Sep 23
11:00 AM
Thu, Sep 23
12:00 PM
Thu, Sep 23
1:00 PM
Thu, Sep 23
2:00 PM
Thu, Sep 23
3:00 PM
Thu, Sep 23
4:00 PM
Thu, Sep 23
5:00 PM
Thu, Sep 23
6:00 PM
Thu, Sep 23
7:00 PM
Thu, Sep 23
8:00 PM
Thu, Sep 23
9:00 PM
Thu, Sep 23
10:00 PM
Thu, Sep 23
11:00 PM
Fri, Sep 24
12:00 AM
Fri, Sep 24
1:00 AM
Fri, Sep 24
2:00 AM
Fri, Sep 24
3:00 AM
Fri, Sep 24
4:00 AM
Fri, Sep 24
5:00 AM
Fri, Sep 24
6:00 AM
Fri, Sep 24
7:00 AM
Fri, Sep 24
8:00 AM
Fri, Sep 24
9:00 AM
Fri, Sep 24
10:00 AM
Fri, Sep 24
11:00 AM
Fri, Sep 24
12:00 PM
Fri, Sep 24
1:00 PM
Fri, Sep 24
2:00 PM
Fri, Sep 24
3:00 PM
Fri, Sep 24
4:00 PM
Fri, Sep 24
5:00 PM
Fri, Sep 24
6:00 PM
Fri, Sep 24
7:00 PM
Fri, Sep 24
8:00 PM
Fri, Sep 24
9:00 PM
Fri, Sep 24
10:00 PM
Condition
Clouds

Clouds

Clouds

Rain

Rain

Rain

Clouds

Rain

Rain

Clouds

Clouds

Clouds

Clouds

Clouds

Clouds

Clouds

Clear

Clear

Clear

Clear

Clear

Clear

Clear

Clear

Clear

Clear

Clear

Clear

Clear

Clear

Clear

Clear

Clear

Clear

Clear

Clear

Clear

Clear

Clear

Clear

Clear

Clear

Clear

Clear

Clear

Clear

Clear

Clear
Temperature 57°F56°F56°F54°F53°F52°F51°F51°F51°F50°F52°F54°F57°F60°F63°F65°F66°F66°F65°F62°F56°F50°F49°F48°F47°F46°F45°F45°F44°F43°F43°F43°F42°F44°F51°F57°F62°F65°F68°F70°F72°F72°F71°F70°F61°F56°F54°F52°F
Feels Like 56°F55°F55°F54°F52°F51°F51°F50°F50°F48°F51°F53°F56°F58°F61°F63°F65°F64°F63°F60°F54°F50°F49°F48°F47°F46°F45°F45°F44°F43°F43°F43°F42°F44°F49°F55°F60°F63°F66°F68°F70°F70°F70°F68°F60°F54°F52°F50°F
Cloudiness 75%68%65%65%95%100%100%100%100%93%33%24%22%32%33%29%1%2%1%1%1%1%0%0%0%0%0%0%0%0%0%0%0%0%0%0%0%0%0%0%0%0%0%0%0%0%0%2%
Visibility 6 mi6 mi6 mi6 mi6 mi6 mi6 mi6 mi6 mi6 mi6 mi6 mi6 mi6 mi6 mi6 mi6 mi6 mi6 mi6 mi6 mi6 mi6 mi6 mi6 mi6 mi6 mi6 mi6 mi6 mi6 mi6 mi6 mi6 mi6 mi6 mi6 mi6 mi6 mi6 mi6 mi6 mi6 mi6 mi6 mi6 mi6 mi6 mi
Precipitation 35%31%36%35%51%51%57%53%49%44%15%10%2%0%0%0%0%0%0%0%0%0%0%0%0%0%0%0%0%0%0%0%0%0%0%0%0%0%0%0%0%0%0%0%0%0%0%0%
Humidity 72%78%82%87%92%97%98%97%97%98%92%80%65%55%48%43%41%39%41%49%61%75%78%81%84%86%87%89%90%91%92%92%93%90%76%61%48%39%33%31%30%30%31%43%50%55%59%64%
Dew Point 48°F50°F50°F51°F51°F50°F50°F50°F49°F48°F49°F47°F45°F43°F42°F42°F41°F40°F40°F41°F42°F42°F42°F41°F41°F41°F41°F41°F40°F40°F40°F40°F39°F41°F42°F43°F41°F39°F37°F37°F38°F38°F39°F46°F42°F40°F39°F39°F
Pressure 29.97"29.97"29.97"29.97"29.97"29.97"29.97"29.97"30"30"30.03"30.03"30.03"30.03"30"30"29.97"29.97"29.97"30"30.06"30.09"30.09"30.12"30.12"30.12"30.12"30.12"30.15"30.15"30.15"30.18"30.18"30.21"30.21"30.18"30.18"30.15"30.12"30.12"30.09"30.09"30.06"30.06"30.09"30.09"30.12"30.12"
Wind Speed 8.2 mph8.3 mph7.9 mph8.2 mph8.1 mph8 mph7.4 mph7.5 mph6.7 mph5.6 mph6.4 mph6.4 mph6.7 mph7.2 mph7.9 mph9.4 mph10.2 mph11.1 mph11.5 mph10.8 mph6.6 mph2.1 mph2.6 mph2.6 mph1.7 mph1.5 mph1.4 mph1.6 mph1.4 mph1.4 mph1.3 mph1.6 mph2.1 mph2.3 mph1.2 mph1.5 mph2.5 mph3.5 mph3.7 mph3.2 mph2.5 mph2.2 mph1.8 mph0.4 mph0.1 mph1 mph2.4 mph2.7 mph
Wind
Direction
248°
WSW
250°
WSW
243°
WSW
248°
WSW
252°
WSW
248°
WSW
248°
WSW
253°
WSW
254°
WSW
246°
WSW
259°
W
280°
W
290°
WNW
286°
WNW
277°
W
276°
W
275°
W
278°
W
285°
WNW
294°
WNW
296°
WNW
274°
W
167°
SSE
152°
SSE
147°
SSE
166°
SSE
172°
S
158°
SSE
149°
SSE
141°
SE
132°
SE
104°
ESE
86°
E
89°
E
91°
E
21°
NNE
12°
NNE
15°
NNE

N
358°
N
357°
N
349°
N
337°
NNW
330°
NNW
354°
N
65°
ENE
82°
E
81°
E

Daily Forecast

Date High Low Precip. Humidity
Today
Sep 22

Rain
76 °F
56 °F
95%
96%
Thursday
Sep 23

Rain
66 °F
47 °F
57%
48%
Friday
Sep 24

Clear
71 °F
42 °F
0%
33%
Saturday
Sep 25

Clouds
71 °F
48 °F
0%
44%
Sunday
Sep 26

Clear
74 °F
50 °F
0%
43%
Monday
Sep 27

Clouds
78 °F
49 °F
0%
33%
Tuesday
Sep 28

Clouds
80 °F
54 °F
0%
36%
Wednesday
Sep 29

Clouds
82 °F
57 °F
0%
42%
Thursday
Sep 30

Clear
87 °F
60 °F
0%
34%
Friday
Oct 1

Clear
85 °F
62 °F
0%
36%
Saturday
Oct 2

Clear
83 °F
56 °F
0%
33%
Sunday
Oct 3

Clear
85 °F
56 °F
0%
27%
Monday
Oct 4

Clear
84 °F
55 °F
0%
26%
Tuesday
Oct 5

Clear
83 °F
55 °F
0%
29%
Wednesday
Oct 6

Rain
72 °F
56 °F
100%
59%
Thursday
Oct 7

Rain
69 °F
61 °F
95%
83%

Temperature 8-14 Day Outlook



Precipitation 8-14 Day Outlook




Quick Links
Boone Lake News
Boone Lake Photos
Boone Lake Videos




About Us
Contact Us
Site Map
Search Site
Advertise With Us
   
Boone.USLakes.info
THE BOONE LAKE WEBSITE

Copyright 2021, Lakes Online
Privacy    |    Legal